カタログに戻る

THOR ABLESTAR DEB

運用中LEO
NORAD 420·DEBRIS·🇺🇸 United States

打ち上げ Jun 29, 1961 から Cape Canaveral Space Force Station

Loading…

次のパス (今後24時間)

TLE

最新Source: Space-Track

元期: Sep 14, 2026, 09:29 UTC

1 00420U 61015EV  26257.39558601  .00000737  00000-0  28266-3 0  9992
2 00420  66.8134  43.0872 0079400 145.6968 214.9299 14.34201324366374

AllMySatでTHOR ABLESTAR DEBをリアルタイム追跡

Download on the App Store